Location: Feigenhofen
(48.4939°N, 10.7793°E)
Time: 16:54:50
(UTC+00:00)

Cosmos 1867 - Pass Details

Date: 26 May 2022
Orbit: 775 x 800 km, 65.0° (Epoch: 29 June)

Event Time Altitude Azimuth Distance (km) Brightness Sun altitude
Exits shadow 00:05:04 29° 232° (SW) 1,427 4.5 -19.5°
Maximum altitude 00:07:54 71° 310° (NW) 844 3.7 -19.4°
Drops below altitude 10° 00:13:23 10° 36° (NE) 2,384 7.1 -19.2°
Sets 00:15:51 0° 38° (NE) 3,318 8.0 -19.0°
